Oak Ridge, TN

5:48 PM EDT on May 29, 2017 (GMT -0400)
Oak Ridge

Weather History for KOQT - February, 2013

Change the Weather History Date:

Wednesday, February 6, 2013

  Actual Average (KTYS) Record (KTYS)
Temperature  
Mean Temperature 46 °F -  
Max Temperature 61 °F 47 °F 73 °F (1986)
Min Temperature 30 °F 27 °F 5 °F (1996)
Degree Days  
Heating Degree Days 20    
Moisture  
Dew Point 30 °F    
Average Humidity 63    
Maximum Humidity 89    
Minimum Humidity 24    
Precipitation  
Precipitation 0.00 in - - ()
Sea Level Pressure  
Sea Level Pressure 30.18 in    
Wind  
Wind Speed 1 mph (SSW)    
Max Wind Speed 5 mph    
Max Gust Speed -    
Visibility 10 miles    
Events      
Averages and records for this station are not official NWS values.
T = Trace of Precipitation, MM = Missing Value Source: NWS Daily Summary

Daily Weather History Graph

Daily Weather History Graph

Search for Another Location

Airport or City:

Trip Planner

Search our weather history database for the weather conditions in past years. The results will help you decide how hot, cold, wet, or windy it might be!

Date:

Astronomy

Feb. 06, 2013 Rise Set
Actual Time 7:33 AM EST 6:09 PM EST
Civil Twilight 7:06 AM EST 6:36 PM EST
Nautical Twilight 6:36 AM EST 7:06 PM EST
Astronomical Twilight 6:06 AM EST 7:36 PM EST
Moon 4:12 AM EST (2/6) 2:30 PM EST (2/6)
Length of Visible Light 11h 29m
Length of Day
10h 36m
Waning Crescent, 17% of the Moon is Illuminated
Feb 6
Waning Crescent
Feb 10
New
Feb 17
First Quarter
Feb 25
Full
Mar 4
Last Quarter

Hourly Weather History & Observations

Time (EST) Temp. Dew Point Humidity Pressure Visibility Wind Dir Wind Speed Gust Speed Precip Events Conditions
12:53 AM 37.9 °F 33.1 °F 83% 30.09 in 10.0 mi Calm Calm - N/A   Clear
1:53 AM 35.1 °F 30.9 °F 85% 30.10 in 10.0 mi Calm Calm - N/A   Clear
2:53 AM 34.0 °F 30.9 °F 89% 30.11 in 10.0 mi Calm Calm - N/A   Clear
3:53 AM 33.1 °F 28.9 °F 85% 30.12 in 10.0 mi Calm Calm - N/A   Clear
4:53 AM 30.9 °F 28.0 °F 89% 30.14 in 10.0 mi Calm Calm - N/A   Clear
5:53 AM 30.9 °F 27.0 °F 85% 30.16 in 10.0 mi Calm Calm - N/A   Clear
6:53 AM 30.0 °F 27.0 °F 88% 30.18 in 10.0 mi Calm Calm - N/A   Clear
7:53 AM 30.9 °F 28.0 °F 89% 30.22 in 10.0 mi Calm Calm - N/A   Clear
8:53 AM 36.0 °F 32.0 °F 86% 30.22 in 10.0 mi Calm Calm - N/A   Clear
9:53 AM 43.0 °F 35.1 °F 74% 30.23 in 10.0 mi Calm Calm - N/A   Clear
10:53 AM 50.0 °F 34.0 °F 54% 30.23 in 10.0 mi Variable 3.5 mph - N/A   Clear
11:53 AM 53.1 °F 33.1 °F 47% 30.24 in 10.0 mi Calm Calm - N/A   Clear
12:53 PM 55.9 °F 30.9 °F 39% 30.22 in 10.0 mi Variable 3.5 mph - N/A   Clear
1:53 PM 59.0 °F 26.1 °F 28% 30.19 in 10.0 mi Variable 3.5 mph - N/A   Clear
2:53 PM 60.1 °F 23.0 °F 24% 30.18 in 10.0 mi SSW 3.5 mph - N/A   Clear
3:53 PM 61.0 °F 26.1 °F 26% 30.17 in 10.0 mi SW 3.5 mph - N/A   Clear
4:53 PM 60.1 °F 27.0 °F 28% 30.17 in 10.0 mi SSW 4.6 mph - N/A   Clear
5:53 PM 55.9 °F 30.0 °F 37% 30.18 in 10.0 mi Calm Calm - N/A   Clear
6:53 PM 51.1 °F 30.0 °F 44% 30.18 in 10.0 mi Calm Calm - N/A   Clear
7:53 PM 46.9 °F 32.0 °F 56% 30.19 in 10.0 mi Calm Calm - N/A   Clear
8:53 PM 44.1 °F 34.0 °F 68% 30.21 in 10.0 mi Calm Calm - N/A   Clear
9:53 PM 42.1 °F 33.1 °F 70% 30.20 in 10.0 mi Calm Calm - N/A   Clear
10:53 PM 42.1 °F 33.1 °F 70% 30.18 in 10.0 mi Calm Calm - N/A   Clear
11:53 PM 41.0 °F 32.0 °F 70% 30.19 in 10.0 mi Calm Calm - N/A   Clear